Regional Weather Roundup
Issued by NWS State College, PA

Home | Current Version | Previous Version | Text Only | Print | Product List | Glossary Off
Versions: 1 2 3 4 5 6 7 8 9 10 11 12 13 14 15 16 17 18 19 20 21 22 23 24 25 26 27 28 29 30 31 32 33 34 35 36 37 38 39 40 41 42 43 44 45 46 47 48 49 50

000
ASUS41 KCTP 302010
RWRCTP

REGIONAL WEATHER ROUNDUP
NATIONAL WEATHER SERVICE STATE COLLEGE PA
400 PM EDT SAT MAY 30 2015

Note: "fair" indicates few or no clouds below 12,000 feet with no
significant weather and/or obstructions to visibility.

* = STATION THAT DOES NOT REPORT PRECIPITATION /E.G. RAIN...SNOW...ETC/
    THUNDER OR FOG.

PAZ002>004-007>009-013>016-020>023-029>032-302100-
WESTERN PENNSYLVANIA

CITY           SKY/WX    TMP DP  RH WIND       PRES   REMARKS
ERIE           PTSUNNY   81  67  62 SW12      29.98F
MEADVILLE      LGT RAIN  73  68  84 W6        30.04R
FRANKLIN*      CLOUDY    79  64  61 SW12G23   30.06F
NEW CASTLE     FAIR      82  69  64 S12       30.04F
BEAVER COUNTY  SUNNY     77  68  73 S9        30.06F
BUTLER*        PTSUNNY   72  66  83 SW8       30.08F
PITTSBURGH INT PTSUNNY   76  67  73 SW8       30.07F THUNDER
PITTSBURGH     PTSUNNY   75  62  64 SW9       30.07S
INDIANA*       MOSUNNY   82  66  57 W12       30.09F
LATROBE        MOSUNNY   84  66  54 W12G23    30.08F
WASHINGTON CO* PTSUNNY   72  66  83 CALM      30.09F
$$

PAZ004>006-010>012-017>019-024>028-033>037-041-042-045-046-049>053-302100-
CENTRAL PENNSYLVANIA

CITY           SKY/WX    TMP DP  RH WIND       PRES   REMARKS
BRADFORD       PTSUNNY   78  61  55 SW10G18   30.05F
DUBOIS         LGT RAIN  76  62  62 SW22G36   30.06S
CLEARFIELD     MOSUNNY   83  59  44 SW14G21   30.05F
JOHNSTOWN      PTSUNNY   78  61  55 SW8       30.11F
ALTOONA        MOSUNNY   82  61  48 S14G23    30.08F
STATE COLLEGE  MOSUNNY   82  70  65 S7        30.06F
WILLIAMSPORT   CLOUDY    81  66  60 S15G24    30.02S
SELINSGROVE    PTSUNNY   79  72  79 VRB3      30.05F
FT INDIANTOWN  MOSUNNY   87  67  52 S10       30.05F
CAPITAL CITY   MOSUNNY   87  65  47 SW13G21   30.05F
HARRISBURG     PTSUNNY   87  66  49 S17G23    30.04F
YORK           MOSUNNY   83  65  54 S8        30.07F
$$

PAZ038>040-043-044-047-048-054-055-060>062-067>071-302100-
EASTERN PENNSYLVANIA

CITY           SKY/WX    TMP DP  RH WIND       PRES   REMARKS
SCRANTON       MOSUNNY   86  62  44 SW14G24   30.04F
MOUNT POCONO   MOSUNNY   80  63  55 S10       30.13F
ALLENTOWN      MOSUNNY   88  62  41 S13G24    30.06F
QUAKERTOWN*    PTCLDY    86  66  51 S10G18    30.09F
READING        PTSUNNY   85  63  47 S14G22    30.06F
LANCASTER      MOSUNNY   84  66  54 S16       30.07F
COATESVILLE    CLEAR     82  63  51 S7        30.11F
POTTSTOWN      MOSUNNY   87  63  44 SW10G22   30.09F
BLUE BELL      SUNNY     86  68  54 S13       30.09F
DOYLESTOWN     MOSUNNY   84  64  50 S8G17     30.08F
WILLOW GROVE   NOT AVBL
NORTH PHILA    PTSUNNY   87  63  44 S9G17     30.10F
PHILADELPHIA   PTSUNNY   86  64  47 SW16G25   30.09F
$$


USA.gov is the U.S. government's official web portal to all federal, state and local government web resources and services.